{"data":{"norad_id":68737,"epoch":"2026-09-20T00:58:13.224576Z","epoch_age_seconds":81041,"freshness":"FRESH","line1":"1 68737U 26082K   26263.04043084  .00021045  00000+0  65192-3 0  9998","line2":"2 68737  97.2878 125.1762 0000252  75.8760 284.2511 15.33467598 24235","mean_motion":15.33467598,"eccentricity":2.52e-5,"inclination_deg":97.2878,"raan_deg":125.1762,"arg_perigee_deg":75.876,"mean_anomaly_deg":284.2511,"bstar":0.00065192,"rev_number":2423,"period_min":93.904820804698,"perigee_km":465.30348050879,"apogee_km":465.64839860094,"semimajor_km":6843.6129395549,"source":"CELESTRAK","updated_at":"2026-09-20T09:00:43.992112Z"}}